Hourly Data Report for February 06, 2018

MIRAMICHI RCS
NEW BRUNSWICK

47°00'34.000" N
65°27'54.000" W
33.00 m
8100989
71744
ACQ

Download Data

Hourly Data (February 2018)
Hourly Data Report for February 6, 2018
TIME
LST
Temp Definition
°C
Dew Point Definition
°C
Rel Hum Definition
%
Precip. Amount Definition
mm

Wind Dir Definition
10's deg

Wind Spd Definition
km/h
Visibility Definition
km
Stn Press Definition
kPa
Hmdx Definition


Wind Chill Definition


Weather Definition


00:00 -9.1 -16.6 55 0.0 28 20   101.18   -17 LegendNANA
01:00 -9.9 -18.2 51 0.0 28 23   101.35   -18 LegendNANA
02:00 -10.6 -18.0 55 0.0 28 12   101.49   -17 LegendNANA
03:00 -11.6 -17.9 59 0.0 27 10   101.62   -17 LegendNANA
04:00 -12.4 -16.7 71 0.0 23 7   101.69   -17 LegendNANA
05:00 -12.2 -16.5 70 0.0 21 10   101.80   -18 LegendNANA
06:00 -12.1 -15.7 75 0.0 23 7   101.88   -16 LegendNANA
07:00 -11.7 -15.6 73 0.0 21 9   102.00   -17 LegendNANA
08:00 -11.5 -15.5 72 0.0 21 13   102.06   -18 LegendNANA
09:00 -10.8 -15.2 70 0.0 22 14   102.11   -17 LegendNANA
10:00 -10.3 -15.1 68 0.0 22 15   102.17   -17 LegendNANA
11:00 -9.2 -14.8 63 0.0 22 13   102.17   -15 LegendNANA
12:00 -8.0 -14.8 58 0.0 22 15   102.22   -14 LegendNANA
13:00 -7.1 -14.3 57 0.0 21 20   102.16   -14 LegendNANA
14:00 -6.3 -14.0 54 0.0 22 19   102.10   -13 LegendNANA
15:00 -5.6 -14.2 51 0.0 22 22   102.09   -13 LegendNANA
16:00 -5.0 -13.9 50 0.0 23 20   102.09   -12 LegendNANA
17:00 -5.7 -13.3 55 0.0 23 16   102.16   -12 LegendNANA
18:00 -7.1 -13.2 62 0.0 20 8   102.23   -11 LegendNANA
19:00 -8.1 -12.9 68 0.0 17 9   102.27   -13 LegendNANA
20:00 -8.4 -13.2 69 0.0 19 11   102.32   -14 LegendNANA
21:00 -9.8 -13.6 74 0.0 31 3   102.40   -12 LegendNANA
22:00 -11.6 -13.9 83 0.0 16 3   102.45   -13 LegendNANA
23:00 -12.9 -14.7 86 0.0 21 2   102.44   -14 LegendNANA

Notes on Data Quality.

Legend

  • E = Estimated
  • M = Missing
  • NA = Not Available*
  • [empty] = Indicates an unobserved value
Date modified: